Terminal Aerodrome Forecast
Issued by NWS

Home | Current Version | Previous Version | Text Only | Print | Product List | Glossary On
Versions: 1 2 3 4 5 6 7 8 9 10 11 12 13
000
FTUS45 KGJT 061744
TAFMTJ
TAF
KMTJ 061744Z 0618/0718 09017G26KT P6SM SKC
     FM061900 21015G25KT P6SM VCTS SCT070 BKN110CB
     FM070000 20016G35KT P6SM VCSH BKN120
     FM070500 17010KT P6SM VCSH BKN090
     FM070800 13006KT P6SM VCSH BKN130=

USA.gov is the U.S. government's official web portal to all federal, state and local government web resources and services.